This is the latest recevied weather packets stored in our database for station/object KU5D-13. If no packets are shown the sender has not sent any weather packets the latest 10 day(s).
| Time | Temp. | Humidity | Pressure | Rain* | Wind** | Luminosity | Snow |
|---|---|---|---|---|---|---|---|
| 1778191835 | 20° C | 37% | 1005.6 hPa | 0 mm | - | 52 W/m² | - |
| 1778190615 | 20.56° C | 38% | 1006.9 hPa | 0 mm | - | 97 W/m² | - |
| 1778190016 | 20.56° C | 39% | 1007.6 hPa | 0 mm | - | 124 W/m² | - |
| 1778188815 | 21.11° C | 40% | 1009 hPa | 0 mm | - | 187 W/m² | - |
| 1778186435 | 21.11° C | 42% | 1011.8 hPa | 0 mm | - | 339 W/m² | - |
| 1778185236 | 21.11° C | 44% | 1013.3 hPa | 0 mm | - | 424 W/m² | - |
| 1778184015 | 21.11° C | 45% | 1014.7 hPa | 0 mm | - | 511 W/m² | - |
| 1778181616 | 20.56° C | 47% | 1017.6 hPa | 0 mm | - | 681 W/m² | - |
| 1778177415 | 18.89° C | 52% | 1022.8 hPa | 0 mm | - | 916 W/m² | - |
| 1778173815 | 16.67° C | 56% | 1027.2 hPa | 0 mm | - | 999 W/m² | - |
| 1778173215 | 16.11° C | 56% | 1027.9 hPa | 0 mm | - | 1000 W/m² | - |
| 1778167815 | 12.22° C | 62% | 1034.3 hPa | 0 mm | - | 846 W/m² | - |
| 1778163635 | 8.89° C | 66% | 1038.8 hPa | 0 mm | - | 576 W/m² | - |
| 1778159416 | 5.56° C | 70% | 1043 hPa | 0 mm | - | 279 W/m² | - |
| 1778156436 | 3.89° C | 72% | 1045.6 hPa | 0 mm | - | 110 W/m² | - |
| 1778153886 | 1.67° C | 74% | 1047.9 hPa | 0 mm | - | 14 W/m² | - |
| 1778119203 | 9.44° C | 27% | 1038.3 hPa | 0 mm | - | 0 W/m² | - |
| 1778118604 | 9.44° C | 27% | 1038.3 hPa | 0 mm | - | 0 W/m² | - |
| 1778117404 | 9.44° C | 27% | 1038.3 hPa | 0 mm | - | 0 W/m² | - |
| 1778116204 | 9.44° C | 27% | 1038.3 hPa | 0 mm | - | 0 W/m² | - |
| 1778113804 | 9.44° C | 27% | 1038.3 hPa | 0 mm | - | 0 W/m² | - |
| 1778109004 | 9.44° C | 27% | 1038.3 hPa | 0 mm | - | 0 W/m² | - |
| 1778106004 | 9.44° C | 27% | 1038.3 hPa | 0 mm | - | 0 W/m² | - |
| 1778096404 | 9.44° C | 27% | 1038.3 hPa | 0 mm | - | 0 W/m² | - |
| 1778095204 | 9.44° C | 27% | 1038.3 hPa | 0 mm | - | 0 W/m² | - |
* Rain latest hour (hover to see other rain measurements)
** Current wind speed in m/s (hover to see current wind gust speed)